START_TIME,STEP,MOV.,P11,t_acc.,P23,t_acc.,P27,t_acc.,A4,t_acc.
1979-08-06 12:00:21.620 ,0,0,6.,4.8,0.,4.8,2.,4.8,0.,4.8
1979-08-06 12:00:26.420 ,0,0,0.,4.8,2.,4.8,0.,4.8,0.,4.8
1979-08-06 12:00:31.220 ,0,0,1.,4.8,0.,4.8,0.,4.8,0.,4.8
1979-08-06 12:00:36.020 ,0,0,1.,4.8,0.,4.8,1.,4.8,0.,4.8
1979-08-06 12:00:40.820 ,0,0,3.,4.8,1.,4.8,0.,4.8,0.,4.8
1979-08-06 12:00:45.620 ,1,0,2.,4.8,1.,4.8,0.,4.8,0.,4.8
1979-08-06 12:00:50.420 ,1,0,1.,4.8,0.,4.8,1.,4.8,0.,4.8
1979-08-06 12:00:55.220 ,1,0,0.,4.8,0.,4.8,0.,4.8,0.,4.8
1979-08-06 12:01:00.020 ,1,0,0.,4.8,0.,4.8,0.,4.8,0.,4.8
1979-08-06 12:01:04.820 ,1,0,3.,4.8,0.,4.8,1.,4.8,0.,4.8
1979-08-06 12:01:09.620 ,1,0,1.,4.8,1.,4.8,0.,4.8,0.,4.8
1979-08-06 12:01:14.420 ,1,0,3.,4.8,0.,4.8,1.,4.8,0.,4.8
1979-08-06 12:01:19.220 ,1,0,0.,4.8,0.,4.8,1.,4.8,0.,4.8
1979-08-06 12:01:24.020 ,1,0,1.,4.8,3.,4.8,0.,4.8,0.,4.8
1979-08-06 12:01:28.820 ,1,0,1.,4.8,2.,4.8,1.,4.8,0.,4.8
1979-08-06 12:01:33.620 ,2,0,3.,4.8,0.,4.8,2.,4.8,0.,4.8
1979-08-06 12:01:38.420 ,2,0,3.,4.8,0.,4.8,0.,4.8,0.,4.8
1979-08-06 12:01:43.220 ,2,0,0.,4.8,0.,4.8,1.,4.8,0.,4.8
1979-08-06 12:01:48.020 ,2,0,4.,4.8,1.,4.8,1.,4.8,0.,4.8
1979-08-06 12:01:52.820 ,2,0,0.,4.8,1.,4.8,0.,4.8,0.,4.8
1979-08-06 12:01:57.620 ,2,0,2.,4.8,2.,4.8,0.,4.8,0.,4.8
1979-08-06 12:02:02.420 ,2,0,2.,4.8,1.,4.8,0.,4.8,0.,4.8
1979-08-06 12:02:07.220 ,2,0,3.,4.8,0.,4.8,0.,4.8,0.,4.8
1979-08-06 12:02:12.020 ,2,0,5.,4.8,0.,4.8,3.,4.8,0.,4.8
1979-08-06 12:02:16.820 ,2,0,0.,4.8,0.,4.8,1.,4.8,0.,4.8
1979-08-06 12:02:21.620 ,3,0,3.,4.8,1.,4.8,0.,4.8,0.,4.8
1979-08-06 12:02:26.420 ,3,0,2.,4.8,1.,4.8,1.,4.8,0.,4.8
1979-08-06 12:02:31.220 ,3,0,4.,4.8,1.,4.8,0.,4.8,0.,4.8
1979-08-06 12:02:36.020 ,3,0,2.,4.8,0.,4.8,1.,4.8,0.,4.8
1979-08-06 12:02:40.820 ,3,0,0.,4.8,0.,4.8,1.,4.8,0.,4.8
1979-08-06 12:02:45.620 ,3,0,4.,4.8,0.,4.8,0.,4.8,1.,4.8
1979-08-06 12:02:50.420 ,3,0,7.,4.8,0.,4.8,1.,4.8,0.,4.8
1979-08-06 12:02:55.220 ,3,0,0.,4.8,0.,4.8,0.,4.8,0.,4.8
1979-08-06 12:03:00.020 ,3,0,4.,4.8,0.,4.8,0.,4.8,0.,4.8
1979-08-06 12:03:04.820 ,3,0,3.,4.8,0.,4.8,1.,4.8,0.,4.8
1979-08-06 12:03:09.620 ,4,0,2.,4.8,0.,4.8,2.,4.8,0.,4.8
1979-08-06 12:03:14.420 ,4,0,4.,4.8,0.,4.8,0.,4.8,0.,4.8
1979-08-06 12:03:19.220 ,4,0,2.,4.8,0.,4.8,0.,4.8,0.,4.8
1979-08-06 12:03:24.020 ,4,0,4.,4.8,0.,4.8,0.,4.8,0.,4.8
1979-08-06 12:03:28.820 ,4,0,2.,4.8,0.,4.8,0.,4.8,1.,4.8
1979-08-06 12:03:33.620 ,4,0,1.,4.8,0.,4.8,1.,4.8,0.,4.8
1979-08-06 12:03:38.420 ,4,0,3.,4.8,1.,4.8,0.,4.8,0.,4.8
1979-08-06 12:03:43.220 ,4,0,2.,4.8,0.,4.8,0.,4.8,0.,4.8
1979-08-06 12:03:48.020 ,4,0,5.,4.8,0.,4.8,0.,4.8,0.,4.8
1979-08-06 12:03:52.820 ,4,0,1.,4.8,0.,4.8,3.,4.8,0.,4.8
1979-08-06 12:03:57.620 ,5,0,2.,4.8,0.,4.8,0.,4.8,0.,4.8
1979-08-06 12:04:02.420 ,5,0,6.,4.8,0.,4.8,0.,4.8,0.,4.8
1979-08-06 12:04:07.220 ,5,0,5.,4.8,0.,4.8,0.,4.8,0.,4.8
1979-08-06 12:04:12.020 ,5,0,4.,4.8,0.,4.8,0.,4.8,0.,4.8
1979-08-06 12:04:16.820 ,5,0,1.,4.8,0.,4.8,0.,4.8,0.,4.8
1979-08-06 12:04:21.620 ,5,0,2.,4.8,1.,4.8,1.,4.8,0.,4.8
1979-08-06 12:04:26.420 ,5,0,3.,4.8,0.,4.8,0.,4.8,0.,4.8
1979-08-06 12:04:31.220 ,5,0,3.,4.8,0.,4.8,0.,4.8,0.,4.8
1979-08-06 12:04:36.020 ,5,0,2.,4.8,0.,4.8,1.,4.8,0.,4.8
1979-08-06 12:04:40.820 ,5,0,0.,4.8,1.,4.8,1.,4.8,0.,4.8
1979-08-06 12:04:45.620 ,6,0,3.,4.8,1.,4.8,1.,4.8,0.,4.8
1979-08-06 12:04:50.420 ,6,0,3.,4.8,0.,4.8,1.,4.8,0.,4.8
1979-08-06 12:04:55.220 ,6,0,2.,4.8,0.,4.8,0.,4.8,0.,4.8
1979-08-06 12:05:00.020 ,6,0,1.,4.8,1.,4.8,1.,4.8,0.,4.8
1979-08-06 12:05:04.820 ,6,0,3.,4.8,3.,4.8,0.,4.8,0.,4.8
1979-08-06 12:05:09.620 ,6,0,2.,4.8,2.,4.8,1.,4.8,0.,4.8
1979-08-06 12:05:14.420 ,6,0,2.,4.8,1.,4.8,0.,4.8,0.,4.8
1979-08-06 12:05:19.220 ,6,0,0.,4.8,0.,4.8,1.,4.8,0.,4.8
1979-08-06 12:05:24.020 ,6,0,1.,4.8,0.,4.8,1.,4.8,0.,4.8
1979-08-06 12:05:28.820 ,6,0,0.,4.8,0.,4.8,0.,4.8,0.,4.8
1979-08-06 12:05:33.620 ,7,0,0.,4.8,0.,4.8,0.,4.8,0.,4.8
1979-08-06 12:05:38.420 ,7,0,1.,4.8,2.,4.8,0.,4.8,0.,4.8
1979-08-06 12:05:43.220 ,7,0,2.,4.8,1.,4.8,1.,4.8,0.,4.8
1979-08-06 12:05:48.020 ,7,0,0.,4.8,0.,4.8,1.,4.8,0.,4.8
1979-08-06 12:05:52.820 ,7,0,1.,4.8,5.,4.8,0.,4.8,0.,4.8
1979-08-06 12:05:57.620 ,7,0,2.,4.8,1.,4.8,1.,4.8,0.,4.8
1979-08-06 12:06:02.420 ,7,0,1.,4.8,0.,4.8,0.,4.8,0.,4.8
1979-08-06 12:06:07.220 ,7,0,1.,4.8,0.,4.8,0.,4.8,0.,4.8
1979-08-06 12:06:12.020 ,7,0,1.,4.8,1.,4.8,2.,4.8,0.,4.8
1979-08-06 12:06:16.820 ,7,0,3.,4.8,1.,4.8,1.,4.8,0.,4.8
1979-08-06 12:06:21.620 ,7,0,1.,4.8,0.,4.8,0.,4.8,0.,4.8
1979-08-06 12:06:26.420 ,7,0,0.,4.8,0.,4.8,1.,4.8,0.,4.8
1979-08-06 12:06:31.220 ,7,0,1.,4.8,0.,4.8,0.,4.8,0.,4.8
1979-08-06 12:06:36.020 ,7,0,2.,4.8,0.,4.8,0.,4.8,0.,4.8
1979-08-06 12:06:40.820 ,7,0,0.,4.8,1.,4.8,1.,4.8,0.,4.8
1979-08-06 12:06:45.620 ,7,0,4.,4.8,1.,4.8,0.,4.8,0.,4.8
1979-08-06 12:06:50.420 ,7,0,1.,4.8,1.,4.8,0.,4.8,0.,4.8
1979-08-06 12:06:55.220 ,7,0,1.,4.8,0.,4.8,3.,4.8,0.,4.8
1979-08-06 12:07:00.020 ,7,0,1.,4.8,1.,4.8,0.,4.8,0.,4.8
1979-08-06 12:07:04.820 ,7,0,1.,4.8,0.,4.8,1.,4.8,0.,4.8
1979-08-06 12:07:09.620 ,6,0,0.,4.8,0.,4.8,1.,4.8,0.,4.8
1979-08-06 12:07:14.420 ,6,0,1.,4.8,0.,4.8,0.,4.8,0.,4.8
1979-08-06 12:07:19.220 ,6,0,2.,4.8,1.,4.8,0.,4.8,0.,4.8
1979-08-06 12:07:24.020 ,6,0,3.,4.8,0.,4.8,0.,4.8,0.,4.8
1979-08-06 12:07:28.820 ,6,0,2.,4.8,0.,4.8,0.,4.8,0.,4.8
1979-08-06 12:07:33.620 ,6,0,4.,4.8,0.,4.8,1.,4.8,0.,4.8
1979-08-06 12:07:38.420 ,6,0,4.,4.8,0.,4.8,0.,4.8,0.,4.8
1979-08-06 12:07:43.220 ,6,0,3.,4.8,2.,4.8,0.,4.8,0.,4.8
1979-08-06 12:07:48.020 ,6,0,2.,4.8,1.,4.8,0.,4.8,0.,4.8
1979-08-06 12:07:52.820 ,6,0,3.,4.8,1.,4.8,0.,4.8,0.,4.8
1979-08-06 12:07:57.620 ,5,0,4.,4.8,1.,4.8,1.,4.8,0.,4.8
1979-08-06 12:08:02.420 ,5,0,2.,4.8,0.,4.8,0.,4.8,0.,4.8
1979-08-06 12:08:07.220 ,5,0,3.,4.8,1.,4.8,1.,4.8,0.,4.8
1979-08-06 12:08:12.020 ,5,0,1.,4.8,0.,4.8,0.,4.8,0.,4.8
1979-08-06 12:08:16.820 ,5,0,5.,4.8,0.,4.8,0.,4.8,0.,4.8
1979-08-06 12:08:21.620 ,5,0,5.,4.8,0.,4.8,0.,4.8,0.,4.8
1979-08-06 12:08:26.420 ,5,0,3.,4.8,1.,4.8,0.,4.8,0.,4.8
1979-08-06 12:08:31.220 ,5,0,4.,4.8,0.,4.8,0.,4.8,0.,4.8
1979-08-06 12:08:36.020 ,5,0,1.,4.8,0.,4.8,0.,4.8,0.,4.8
1979-08-06 12:08:40.820 ,5,0,4.,4.8,1.,4.8,1.,4.8,0.,4.8
1979-08-06 12:08:45.620 ,4,0,1.,4.8,0.,4.8,1.,4.8,0.,4.8
1979-08-06 12:08:50.420 ,4,0,2.,4.8,0.,4.8,0.,4.8,0.,4.8
1979-08-06 12:08:55.220 ,4,0,3.,4.8,0.,4.8,0.,4.8,0.,4.8
1979-08-06 12:09:00.020 ,4,0,2.,4.8,1.,4.8,0.,4.8,0.,4.8
1979-08-06 12:09:04.820 ,4,0,1.,4.8,0.,4.8,0.,4.8,0.,4.8
1979-08-06 12:09:09.620 ,4,0,7.,4.8,0.,4.8,0.,4.8,0.,4.8
1979-08-06 12:09:14.420 ,4,0,2.,4.8,0.,4.8,0.,4.8,0.,4.8
1979-08-06 12:09:19.220 ,4,0,2.,4.8,0.,4.8,0.,4.8,0.,4.8
1979-08-06 12:09:24.020 ,4,0,4.,4.8,0.,4.8,1.,4.8,0.,4.8
1979-08-06 12:09:28.820 ,4,0,7.,4.8,3.,4.8,0.,4.8,0.,4.8
1979-08-06 12:09:33.620 ,3,0,3.,4.8,0.,4.8,0.,4.8,0.,4.8
1979-08-06 12:09:38.420 ,3,0,2.,4.8,1.,4.8,1.,4.8,0.,4.8
1979-08-06 12:09:43.220 ,3,0,3.,4.8,0.,4.8,1.,4.8,0.,4.8
1979-08-06 12:09:48.020 ,3,0,1.,4.8,1.,4.8,1.,4.8,0.,4.8
1979-08-06 12:09:52.820 ,3,0,4.,4.8,0.,4.8,1.,4.8,0.,4.8
1979-08-06 12:09:57.620 ,3,0,2.,4.8,0.,4.8,1.,4.8,0.,4.8
1979-08-06 12:10:02.420 ,3,0,3.,4.8,0.,4.8,0.,4.8,0.,4.8
1979-08-06 12:10:07.220 ,3,0,1.,4.8,0.,4.8,0.,4.8,0.,4.8
1979-08-06 12:10:12.020 ,3,0,3.,4.8,0.,4.8,0.,4.8,0.,4.8
1979-08-06 12:10:16.820 ,3,0,6.,4.8,0.,4.8,0.,4.8,0.,4.8
1979-08-06 12:10:21.620 ,2,0,1.,4.8,0.,4.8,0.,4.8,0.,4.8
1979-08-06 12:10:26.420 ,2,0,1.,4.8,0.,4.8,0.,4.8,0.,4.8
1979-08-06 12:10:31.220 ,2,0,4.,4.8,2.,4.8,0.,4.8,0.,4.8
1979-08-06 12:10:36.020 ,2,0,2.,4.8,1.,4.8,0.,4.8,0.,4.8
1979-08-06 12:10:40.820 ,2,0,3.,4.8,2.,4.8,1.,4.8,0.,4.8
1979-08-06 12:10:45.620 ,2,0,1.,4.8,0.,4.8,1.,4.8,0.,4.8
1979-08-06 12:10:50.420 ,2,0,3.,4.8,0.,4.8,0.,4.8,0.,4.8
1979-08-06 12:10:55.220 ,2,0,2.,4.8,1.,4.8,0.,4.8,0.,4.8
1979-08-06 12:11:00.020 ,2,0,5.,4.8,0.,4.8,1.,4.8,0.,4.8
1979-08-06 12:11:04.820 ,2,0,3.,4.8,0.,4.8,0.,4.8,0.,4.8
1979-08-06 12:11:09.620 ,1,0,2.,4.8,0.,4.8,0.,4.8,0.,4.8
1979-08-06 12:11:14.420 ,1,0,2.,4.8,0.,4.8,1.,4.8,0.,4.8
1979-08-06 12:11:19.220 ,1,0,5.,4.8,2.,4.8,0.,4.8,0.,4.8
1979-08-06 12:11:24.020 ,1,0,2.,4.8,1.,4.8,0.,4.8,0.,4.8
1979-08-06 12:11:28.820 ,1,0,2.,4.8,0.,4.8,0.,4.8,0.,4.8
1979-08-06 12:11:33.620 ,1,0,0.,4.8,0.,4.8,0.,4.8,0.,4.8
1979-08-06 12:11:38.420 ,1,0,3.,4.8,1.,4.8,0.,4.8,0.,4.8
1979-08-06 12:11:43.220 ,1,0,2.,4.8,0.,4.8,0.,4.8,0.,4.8
1979-08-06 12:11:48.020 ,1,0,1.,4.8,1.,4.8,0.,4.8,0.,4.8
1979-08-06 12:11:52.820 ,1,0,3.,4.8,2.,4.8,1.,4.8,0.,4.8
1979-08-06 12:11:57.620 ,0,0,1.,4.8,0.,4.8,1.,4.8,0.,4.8
1979-08-06 12:12:02.420 ,0,0,4.,4.8,0.,4.8,2.,4.8,0.,4.8
1979-08-06 12:12:07.220 ,0,0,3.,4.8,0.,4.8,1.,4.8,0.,4.8
1979-08-06 12:12:12.020 ,0,0,2.,4.8,0.,4.8,0.,4.8,0.,4.8
1979-08-06 12:12:16.820 ,0,0,3.,4.8,0.,4.8,2.,4.8,0.,4.8
1979-08-06 12:12:21.620 ,0,0,3.,4.8,1.,4.8,0.,4.8,0.,4.8
1979-08-06 12:12:26.420 ,0,0,2.,4.8,1.,4.8,1.,4.8,0.,4.8
1979-08-06 12:12:31.220 ,0,0,3.,4.8,0.,4.8,0.,4.8,0.,4.8
1979-08-06 12:12:36.020 ,0,0,2.,4.8,1.,4.8,0.,4.8,0.,4.8
1979-08-06 12:12:40.820 ,0,0,0.,4.8,0.,4.8,0.,4.8,0.,4.8
1979-08-06 12:12:45.620 ,0,0,3.,4.8,2.,4.8,0.,4.8,0.,4.8
1979-08-06 12:12:50.420 ,0,0,3.,4.8,0.,4.8,2.,4.8,0.,4.8
1979-08-06 12:12:55.220 ,0,0,2.,4.8,1.,4.8,1.,4.8,0.,4.8
1979-08-06 12:13:00.020 ,0,0,1.,4.8,2.,4.8,0.,4.8,0.,4.8
1979-08-06 12:13:04.820 ,0,0,1.,4.8,0.,4.8,0.,4.8,0.,4.8
1979-08-06 12:13:09.620 ,0,0,3.,4.8,0.,4.8,1.,4.8,0.,4.8
1979-08-06 12:13:14.420 ,0,0,4.,4.8,1.,4.8,2.,4.8,0.,4.8
1979-08-06 12:13:19.220 ,0,0,0.,4.8,3.,4.8,1.,4.8,0.,4.8
1979-08-06 12:13:24.020 ,0,0,3.,4.8,2.,4.8,0.,4.8,0.,4.8
1979-08-06 12:13:28.820 ,0,0,0.,4.8,0.,4.8,0.,4.8,0.,4.8
1979-08-06 12:13:33.620 ,1,0,1.,4.8,1.,4.8,0.,4.8,0.,4.8
1979-08-06 12:13:38.420 ,1,0,0.,4.8,1.,4.8,1.,4.8,0.,4.8
1979-08-06 12:13:43.220 ,1,0,2.,4.8,0.,4.8,0.,4.8,0.,4.8
1979-08-06 12:13:48.020 ,1,0,1.,4.8,1.,4.8,2.,4.8,0.,4.8
1979-08-06 12:13:52.820 ,1,0,0.,4.8,1.,4.8,1.,4.8,0.,4.8
1979-08-06 12:13:57.620 ,1,0,1.,4.8,2.,4.8,0.,4.8,0.,4.8
1979-08-06 12:14:02.420 ,1,0,1.,4.8,1.,4.8,0.,4.8,0.,4.8
1979-08-06 12:14:07.220 ,1,0,2.,4.8,0.,4.8,0.,4.8,0.,4.8
1979-08-06 12:14:12.020 ,1,0,1.,4.8,1.,4.8,0.,4.8,0.,4.8
1979-08-06 12:14:16.820 ,1,0,2.,4.8,0.,4.8,0.,4.8,0.,4.8
1979-08-06 12:14:21.620 ,2,0,1.,4.8,1.,4.8,0.,4.8,0.,4.8
1979-08-06 12:14:26.420 ,2,0,0.,4.8,0.,4.8,0.,4.8,0.,4.8
1979-08-06 12:14:31.220 ,2,0,1.,4.8,1.,4.8,0.,4.8,0.,4.8
1979-08-06 12:14:36.020 ,2,0,3.,4.8,1.,4.8,1.,4.8,0.,4.8
1979-08-06 12:14:40.820 ,2,0,3.,4.8,0.,4.8,1.,4.8,0.,4.8
1979-08-06 12:14:45.620 ,2,0,2.,4.8,0.,4.8,0.,4.8,0.,4.8
1979-08-06 12:14:50.420 ,2,0,3.,4.8,1.,4.8,0.,4.8,0.,4.8
1979-08-06 12:14:55.220 ,2,0,3.,4.8,0.,4.8,0.,4.8,0.,4.8
1979-08-06 12:15:00.020 ,2,0,5.,4.8,0.,4.8,0.,4.8,0.,4.8
1979-08-06 12:15:04.820 ,2,0,4.,4.8,1.,4.8,1.,4.8,0.,4.8
1979-08-06 12:15:09.620 ,3,0,0.,4.8,0.,4.8,0.,4.8,0.,4.8
1979-08-06 12:15:14.420 ,3,0,3.,4.8,0.,4.8,0.,4.8,0.,4.8
1979-08-06 12:15:19.220 ,3,0,5.,4.8,1.,4.8,0.,4.8,0.,4.8
1979-08-06 12:15:24.020 ,3,0,3.,4.8,0.,4.8,0.,4.8,0.,4.8
1979-08-06 12:15:28.820 ,3,0,0.,4.8,0.,4.8,0.,4.8,0.,4.8
1979-08-06 12:15:33.620 ,3,0,2.,4.8,0.,4.8,0.,4.8,0.,4.8
1979-08-06 12:15:38.420 ,3,0,2.,4.8,1.,4.8,1.,4.8,0.,4.8
1979-08-06 12:15:43.220 ,3,0,3.,4.8,0.,4.8,0.,4.8,0.,4.8
1979-08-06 12:15:48.020 ,3,0,6.,4.8,0.,4.8,0.,4.8,0.,4.8
1979-08-06 12:15:52.820 ,3,0,0.,4.8,1.,4.8,1.,4.8,0.,4.8
1979-08-06 12:15:57.620 ,4,0,4.,4.8,0.,4.8,1.,4.8,0.,4.8
1979-08-06 12:16:02.420 ,4,0,2.,4.8,0.,4.8,0.,4.8,0.,4.8
1979-08-06 12:16:07.220 ,4,0,6.,4.8,0.,4.8,0.,4.8,0.,4.8
1979-08-06 12:16:12.020 ,4,0,3.,4.8,1.,4.8,0.,4.8,0.,4.8
1979-08-06 12:16:16.820 ,4,0,2.,4.8,0.,4.8,0.,4.8,0.,4.8
1979-08-06 12:16:21.620 ,4,0,1.,4.8,0.,4.8,3.,4.8,0.,4.8
1979-08-06 12:16:26.420 ,4,0,1.,4.8,0.,4.8,0.,4.8,0.,4.8
1979-08-06 12:16:31.220 ,4,0,0.,4.8,1.,4.8,0.,4.8,0.,4.8
1979-08-06 12:16:36.020 ,4,0,4.,4.8,0.,4.8,1.,4.8,0.,4.8
1979-08-06 12:16:40.820 ,4,0,1.,4.8,1.,4.8,1.,4.8,0.,4.8
1979-08-06 12:16:45.620 ,5,0,1.,4.8,0.,4.8,0.,4.8,0.,4.8
1979-08-06 12:16:50.420 ,5,0,2.,4.8,0.,4.8,0.,4.8,0.,4.8
1979-08-06 12:16:55.220 ,5,0,2.,4.8,0.,4.8,0.,4.8,0.,4.8
1979-08-06 12:17:00.020 ,5,0,0.,4.8,0.,4.8,0.,4.8,0.,4.8
1979-08-06 12:17:04.820 ,5,0,3.,4.8,0.,4.8,0.,4.8,0.,4.8
1979-08-06 12:17:09.620 ,5,0,3.,4.8,0.,4.8,1.,4.8,0.,4.8
1979-08-06 12:17:14.420 ,5,0,4.,4.8,0.,4.8,2.,4.8,0.,4.8
1979-08-06 12:17:19.220 ,5,0,5.,4.8,0.,4.8,1.,4.8,0.,4.8
1979-08-06 12:17:24.020 ,5,0,6.,4.8,0.,4.8,1.,4.8,0.,4.8
1979-08-06 12:17:28.820 ,5,0,2.,4.8,0.,4.8,1.,4.8,0.,4.8
1979-08-06 12:17:33.620 ,6,0,4.,4.8,0.,4.8,1.,4.8,0.,4.8
1979-08-06 12:17:38.420 ,6,0,2.,4.8,0.,4.8,0.,4.8,0.,4.8
1979-08-06 12:17:43.220 ,6,0,3.,4.8,0.,4.8,1.,4.8,0.,4.8
1979-08-06 12:17:48.020 ,6,0,1.,4.8,2.,4.8,1.,4.8,0.,4.8
1979-08-06 12:17:52.820 ,6,0,4.,4.8,0.,4.8,0.,4.8,0.,4.8
1979-08-06 12:17:57.620 ,6,0,0.,4.8,0.,4.8,0.,4.8,0.,4.8
1979-08-06 12:18:02.420 ,6,0,1.,4.8,2.,4.8,1.,4.8,0.,4.8
1979-08-06 12:18:07.220 ,6,0,5.,4.8,0.,4.8,0.,4.8,0.,4.8
1979-08-06 12:18:12.020 ,6,0,3.,4.8,2.,4.8,1.,4.8,0.,4.8
1979-08-06 12:18:16.820 ,6,0,2.,4.8,0.,4.8,0.,4.8,0.,4.8
1979-08-06 12:18:21.620 ,7,0,3.,4.8,0.,4.8,1.,4.8,0.,4.8
1979-08-06 12:18:26.420 ,7,0,1.,4.8,1.,4.8,4.,4.8,1.,4.8
1979-08-06 12:18:31.220 ,7,0,2.,4.8,0.,4.8,0.,4.8,0.,4.8
1979-08-06 12:18:36.020 ,7,0,2.,4.8,1.,4.8,1.,4.8,0.,4.8
1979-08-06 12:18:40.820 ,7,0,1.,4.8,1.,4.8,2.,4.8,0.,4.8
1979-08-06 12:18:45.620 ,7,0,2.,4.8,1.,4.8,0.,4.8,0.,4.8
1979-08-06 12:18:50.420 ,7,0,0.,4.8,0.,4.8,0.,4.8,0.,4.8
1979-08-06 12:18:55.220 ,7,0,2.,4.8,0.,4.8,0.,4.8,0.,4.8
1979-08-06 12:19:00.020 ,7,0,0.,4.8,0.,4.8,0.,4.8,0.,4.8
1979-08-06 12:19:04.820 ,7,0,1.,4.8,0.,4.8,1.,4.8,0.,4.8
1979-08-06 12:19:09.620 ,3,1,2.,4.8,0.,4.8,1.,4.8,0.,4.8
1979-08-06 12:19:14.420 ,3,1,2.,4.8,0.,4.8,1.,4.8,0.,4.8
1979-08-06 12:19:19.220 ,3,1,3.,4.8,0.,4.8,0.,4.8,0.,4.8
1979-08-06 12:19:24.020 ,3,1,3.,4.8,0.,4.8,0.,4.8,0.,4.8
1979-08-06 12:19:28.820 ,3,1,3.,4.8,0.,4.8,2.,4.8,0.,4.8
1979-08-06 12:19:33.620 ,0,1,0.,4.8,0.,4.8,0.,4.8,0.,4.8
1979-08-06 12:19:38.420 ,0,1,5.,4.8,0.,4.8,0.,4.8,0.,4.8
1979-08-06 12:19:43.220 ,0,1,4.,4.8,1.,4.8,1.,4.8,0.,4.8
1979-08-06 12:19:48.020 ,0,1,2.,4.8,0.,4.8,0.,4.8,0.,4.8
1979-08-06 12:19:52.820 ,0,1,2.,4.8,1.,4.8,1.,4.8,0.,4.8
1979-08-06 12:19:57.620 ,4,1,1.,4.8,1.,4.8,0.,4.8,0.,4.8
1979-08-06 12:20:02.420 ,4,1,2.,4.8,0.,4.8,1.,4.8,0.,4.8
1979-08-06 12:20:07.220 ,4,1,3.,4.8,0.,4.8,1.,4.8,0.,4.8
1979-08-06 12:20:12.020 ,4,1,3.,4.8,1.,4.8,1.,4.8,0.,4.8
1979-08-06 12:20:16.820 ,4,1,1.,4.8,0.,4.8,1.,4.8,0.,4.8
1979-08-06 12:20:21.620 ,7,1,1.,4.8,1.,4.8,2.,4.8,0.,4.8
1979-08-06 12:20:26.420 ,7,1,2.,4.8,0.,4.8,0.,4.8,0.,4.8
1979-08-06 12:20:31.220 ,7,1,1.,4.8,1.,4.8,1.,4.8,0.,4.8
1979-08-06 12:20:36.020 ,7,1,2.,4.8,0.,4.8,1.,4.8,0.,4.8
1979-08-06 12:20:40.820 ,7,1,2.,4.8,0.,4.8,1.,4.8,0.,4.8
1979-08-06 12:20:45.620 ,3,1,2.,4.8,0.,4.8,1.,4.8,0.,4.8
1979-08-06 12:20:50.420 ,3,1,2.,4.8,1.,4.8,1.,4.8,0.,4.8
1979-08-06 12:20:55.220 ,3,1,2.,4.8,0.,4.8,0.,4.8,0.,4.8
1979-08-06 12:21:00.020 ,3,1,5.,4.8,0.,4.8,0.,4.8,0.,4.8
1979-08-06 12:21:04.820 ,3,1,3.,4.8,0.,4.8,1.,4.8,0.,4.8
1979-08-06 12:21:09.620 ,0,1,1.,4.8,0.,4.8,0.,4.8,0.,4.8
1979-08-06 12:21:14.420 ,0,1,2.,4.8,0.,4.8,0.,4.8,0.,4.8
1979-08-06 12:21:19.220 ,0,1,3.,4.8,0.,4.8,1.,4.8,0.,4.8
1979-08-06 12:21:24.020 ,0,1,1.,4.8,1.,4.8,0.,4.8,0.,4.8
1979-08-06 12:21:28.820 ,0,1,4.,4.8,1.,4.8,1.,4.8,0.,4.8
1979-08-06 12:21:33.620 ,4,1,3.,4.8,0.,4.8,1.,4.8,0.,4.8
1979-08-06 12:21:38.420 ,4,1,0.,4.8,1.,4.8,1.,4.8,0.,4.8
1979-08-06 12:21:43.220 ,4,1,3.,4.8,0.,4.8,1.,4.8,0.,4.8
1979-08-06 12:21:48.020 ,4,1,4.,4.8,1.,4.8,0.,4.8,0.,4.8
1979-08-06 12:21:52.820 ,4,1,6.,4.8,0.,4.8,2.,4.8,0.,4.8
1979-08-06 12:21:57.620 ,7,1,6.,4.8,0.,4.8,0.,4.8,0.,4.8
1979-08-06 12:22:02.420 ,7,1,2.,4.8,0.,4.8,0.,4.8,0.,4.8
1979-08-06 12:22:07.220 ,7,1,0.,4.8,3.,4.8,0.,4.8,0.,4.8
1979-08-06 12:22:12.020 ,7,1,0.,4.8,0.,4.8,0.,4.8,0.,4.8
1979-08-06 12:22:16.820 ,7,1,1.,4.8,0.,4.8,0.,4.8,0.,4.8
1979-08-06 12:22:21.620 ,3,1,1.,4.8,0.,4.8,1.,4.8,0.,4.8
1979-08-06 12:22:26.420 ,3,1,3.,4.8,0.,4.8,0.,4.8,0.,4.8
1979-08-06 12:22:31.220 ,3,1,0.,4.8,0.,4.8,0.,4.8,0.,4.8
1979-08-06 12:22:36.020 ,3,1,2.,4.8,0.,4.8,2.,4.8,0.,4.8
1979-08-06 12:22:40.820 ,3,1,4.,4.8,0.,4.8,0.,4.8,0.,4.8
1979-08-06 12:22:45.620 ,0,1,1.,4.8,0.,4.8,0.,4.8,0.,4.8
1979-08-06 12:22:50.420 ,0,1,1.,4.8,1.,4.8,0.,4.8,0.,4.8
1979-08-06 12:22:55.220 ,0,1,2.,4.8,1.,4.8,0.,4.8,0.,4.8
1979-08-06 12:23:00.020 ,0,1,2.,4.8,2.,4.8,0.,4.8,0.,4.8
1979-08-06 12:23:04.820 ,0,1,1.,4.8,0.,4.8,0.,4.8,0.,4.8
1979-08-06 12:23:09.620 ,4,1,0.,4.8,0.,4.8,1.,4.8,0.,4.8
1979-08-06 12:23:14.420 ,4,1,4.,4.8,2.,4.8,1.,4.8,0.,4.8
1979-08-06 12:23:19.220 ,4,1,2.,4.8,2.,4.8,0.,4.8,0.,4.8
1979-08-06 12:23:24.020 ,4,1,2.,4.8,0.,4.8,2.,4.8,0.,4.8
1979-08-06 12:23:28.820 ,4,1,1.,4.8,0.,4.8,0.,4.8,0.,4.8
1979-08-06 12:23:33.620 ,7,1,3.,4.8,0.,4.8,0.,4.8,0.,4.8
1979-08-06 12:23:38.420 ,7,1,3.,4.8,0.,4.8,0.,4.8,0.,4.8
1979-08-06 12:23:43.220 ,7,1,1.,4.8,2.,4.8,0.,4.8,0.,4.8
1979-08-06 12:23:48.020 ,7,1,2.,4.8,0.,4.8,1.,4.8,0.,4.8
1979-08-06 12:23:52.820 ,7,1,0.,4.8,1.,4.8,1.,4.8,0.,4.8
1979-08-06 12:23:57.620 ,3,1,0.,4.8,2.,4.8,2.,4.8,0.,4.8
1979-08-06 12:24:02.420 ,3,1,1.,4.8,1.,4.8,0.,4.8,0.,4.8
1979-08-06 12:24:07.220 ,3,1,3.,4.8,0.,4.8,0.,4.8,0.,4.8
1979-08-06 12:24:12.020 ,3,1,2.,4.8,0.,4.8,0.,4.8,0.,4.8
1979-08-06 12:24:16.820 ,3,1,4.,4.8,0.,4.8,0.,4.8,0.,4.8
1979-08-06 12:24:21.620 ,0,1,2.,4.8,0.,4.8,2.,4.8,0.,4.8
1979-08-06 12:24:26.420 ,0,1,1.,4.8,0.,4.8,1.,4.8,0.,4.8
1979-08-06 12:24:31.220 ,0,1,0.,4.8,1.,4.8,3.,4.8,0.,4.8
1979-08-06 12:24:36.020 ,0,1,2.,4.8,0.,4.8,1.,4.8,0.,4.8
1979-08-06 12:24:40.820 ,0,1,1.,4.8,0.,4.8,0.,4.8,0.,4.8
1979-08-06 12:24:45.620 ,4,1,3.,4.8,1.,4.8,0.,4.8,0.,4.8
1979-08-06 12:24:50.420 ,4,1,1.,4.8,0.,4.8,1.,4.8,0.,4.8
1979-08-06 12:24:55.220 ,4,1,1.,4.8,0.,4.8,0.,4.8,0.,4.8
1979-08-06 12:25:00.020 ,4,1,2.,4.8,0.,4.8,1.,4.8,0.,4.8
1979-08-06 12:25:04.820 ,4,1,3.,4.8,1.,4.8,0.,4.8,0.,4.8
1979-08-06 12:25:09.620 ,7,1,1.,4.8,0.,4.8,0.,4.8,0.,4.8
1979-08-06 12:25:14.420 ,7,1,1.,4.8,1.,4.8,0.,4.8,0.,4.8
1979-08-06 12:25:19.220 ,7,1,4.,4.8,2.,4.8,0.,4.8,0.,4.8
1979-08-06 12:25:24.020 ,7,1,0.,4.8,1.,4.8,3.,4.8,0.,4.8
1979-08-06 12:25:28.820 ,7,1,1.,4.8,0.,4.8,0.,4.8,0.,4.8
1979-08-06 12:25:33.620 ,3,1,1.,4.8,0.,4.8,0.,4.8,0.,4.8
1979-08-06 12:25:38.420 ,3,1,4.,4.8,1.,4.8,1.,4.8,0.,4.8
1979-08-06 12:25:43.220 ,3,1,1.,4.8,0.,4.8,0.,4.8,0.,4.8
1979-08-06 12:25:48.020 ,3,1,4.,4.8,0.,4.8,0.,4.8,0.,4.8
1979-08-06 12:25:52.820 ,3,1,4.,4.8,1.,4.8,0.,4.8,0.,4.8
1979-08-06 12:25:57.620 ,0,1,1.,4.8,0.,4.8,2.,4.8,0.,4.8
1979-08-06 12:26:02.420 ,0,1,1.,4.8,1.,4.8,1.,4.8,0.,4.8
1979-08-06 12:26:07.220 ,0,1,1.,4.8,0.,4.8,2.,4.8,0.,4.8
1979-08-06 12:26:12.020 ,0,1,2.,4.8,1.,4.8,0.,4.8,0.,4.8
1979-08-06 12:26:16.820 ,0,1,1.,4.8,1.,4.8,0.,4.8,0.,4.8
1979-08-06 12:26:21.620 ,4,1,4.,4.8,0.,4.8,0.,4.8,0.,4.8
1979-08-06 12:26:26.420 ,4,1,0.,4.8,2.,4.8,1.,4.8,0.,4.8
1979-08-06 12:26:31.220 ,4,1,2.,4.8,0.,4.8,0.,4.8,0.,4.8
1979-08-06 12:26:36.020 ,4,1,0.,4.8,0.,4.8,0.,4.8,0.,4.8
1979-08-06 12:26:40.820 ,4,1,3.,4.8,0.,4.8,0.,4.8,0.,4.8
1979-08-06 12:26:45.620 ,7,1,2.,4.8,0.,4.8,0.,4.8,0.,4.8
1979-08-06 12:26:50.420 ,7,1,2.,4.8,0.,4.8,1.,4.8,0.,4.8
1979-08-06 12:26:55.220 ,7,1,3.,4.8,3.,4.8,1.,4.8,1.,4.8
1979-08-06 12:27:00.020 ,7,1,1.,4.8,1.,4.8,0.,4.8,0.,4.8
1979-08-06 12:27:04.820 ,7,1,0.,4.8,0.,4.8,0.,4.8,0.,4.8
1979-08-06 12:27:09.620 ,3,1,0.,4.8,0.,4.8,0.,4.8,0.,4.8
1979-08-06 12:27:14.420 ,3,1,3.,4.8,1.,4.8,0.,4.8,0.,4.8
1979-08-06 12:27:19.220 ,3,1,0.,4.8,1.,4.8,0.,4.8,0.,4.8
1979-08-06 12:27:24.020 ,3,1,0.,4.8,0.,4.8,1.,4.8,0.,4.8
1979-08-06 12:27:28.820 ,3,1,2.,4.8,0.,4.8,0.,4.8,0.,4.8
1979-08-06 12:27:33.620 ,0,1,5.,4.8,0.,4.8,0.,4.8,0.,4.8
1979-08-06 12:27:38.420 ,0,1,4.,4.8,1.,4.8,1.,4.8,0.,4.8
1979-08-06 12:27:43.220 ,0,1,2.,4.8,0.,4.8,0.,4.8,0.,4.8
1979-08-06 12:27:48.020 ,0,1,3.,4.8,2.,4.8,0.,4.8,0.,4.8
1979-08-06 12:27:52.820 ,0,1,1.,4.8,2.,4.8,0.,4.8,0.,4.8
1979-08-06 12:27:57.620 ,4,1,1.,4.8,2.,4.8,1.,4.8,0.,4.8
1979-08-06 12:28:02.420 ,4,1,1.,4.8,2.,4.8,0.,4.8,0.,4.8
1979-08-06 12:28:07.220 ,4,1,2.,4.8,0.,4.8,0.,4.8,0.,4.8
1979-08-06 12:28:12.020 ,4,1,5.,4.8,1.,4.8,0.,4.8,0.,4.8
1979-08-06 12:28:16.820 ,4,1,1.,4.8,0.,4.8,0.,4.8,0.,4.8
1979-08-06 12:28:21.620 ,7,1,3.,4.8,0.,4.8,0.,4.8,0.,4.8
1979-08-06 12:28:26.420 ,7,1,7.,4.8,0.,4.8,0.,4.8,0.,4.8
1979-08-06 12:28:31.220 ,7,1,4.,4.8,0.,4.8,0.,4.8,0.,4.8
1979-08-06 12:28:36.020 ,7,1,1.,4.8,0.,4.8,0.,4.8,0.,4.8
1979-08-06 12:28:40.820 ,7,1,2.,4.8,1.,4.8,0.,4.8,0.,4.8
1979-08-06 12:28:45.620 ,3,1,1.,4.8,0.,4.8,0.,4.8,0.,4.8
1979-08-06 12:28:50.420 ,3,1,4.,4.8,2.,4.8,0.,4.8,0.,4.8
1979-08-06 12:28:55.220 ,3,1,1.,4.8,0.,4.8,0.,4.8,0.,4.8
1979-08-06 12:29:00.020 ,3,1,2.,4.8,0.,4.8,1.,4.8,0.,4.8
1979-08-06 12:29:04.820 ,3,1,0.,4.8,2.,4.8,0.,4.8,0.,4.8
1979-08-06 12:29:09.620 ,0,1,2.,4.8,1.,4.8,1.,4.8,0.,4.8
1979-08-06 12:29:14.420 ,0,1,1.,4.8,1.,4.8,3.,4.8,0.,4.8
1979-08-06 12:29:19.220 ,0,1,0.,4.8,2.,4.8,0.,4.8,0.,4.8
1979-08-06 12:29:24.020 ,0,1,4.,4.8,2.,4.8,0.,4.8,0.,4.8
1979-08-06 12:29:28.820 ,0,1,2.,4.8,0.,4.8,0.,4.8,0.,4.8
1979-08-06 12:29:33.620 ,0,0,1.,4.8,2.,4.8,0.,4.8,0.,4.8
1979-08-06 12:29:38.420 ,0,0,1.,4.8,0.,4.8,0.,4.8,0.,4.8
1979-08-06 12:29:43.220 ,0,0,3.,4.8,1.,4.8,1.,4.8,0.,4.8
1979-08-06 12:29:48.020 ,0,0,1.,4.8,2.,4.8,0.,4.8,0.,4.8
1979-08-06 12:29:52.820 ,0,0,4.,4.8,0.,4.8,0.,4.8,0.,4.8
1979-08-06 12:29:57.620 ,0,0,1.,4.8,1.,4.8,1.,4.8,0.,4.8
1979-08-06 12:30:02.420 ,0,0,2.,4.8,0.,4.8,0.,4.8,0.,4.8
1979-08-06 12:30:07.220 ,0,0,2.,4.8,0.,4.8,0.,4.8,0.,4.8
1979-08-06 12:30:12.020 ,0,0,4.,4.8,1.,4.8,0.,4.8,0.,4.8
1979-08-06 12:30:16.820 ,0,0,2.,4.8,0.,4.8,0.,4.8,0.,4.8
1979-08-06 12:30:21.620 ,5,0,2.,4.8,1.,4.8,1.,4.8,0.,4.8
1979-08-06 12:30:26.420 ,5,0,4.,4.8,1.,4.8,1.,4.8,0.,4.8
1979-08-06 12:30:31.220 ,5,0,5.,4.8,3.,4.8,0.,4.8,0.,4.8
1979-08-06 12:30:36.020 ,5,0,1.,4.8,0.,4.8,1.,4.8,0.,4.8
1979-08-06 12:30:40.820 ,5,0,1.,4.8,0.,4.8,0.,4.8,0.,4.8
1979-08-06 12:30:45.620 ,5,0,2.,4.8,0.,4.8,2.,4.8,0.,4.8
1979-08-06 12:30:50.420 ,5,0,3.,4.8,0.,4.8,1.,4.8,0.,4.8
1979-08-06 12:30:55.220 ,5,0,4.,4.8,0.,4.8,0.,4.8,0.,4.8
1979-08-06 12:31:00.020 ,5,0,0.,4.8,0.,4.8,2.,4.8,0.,4.8
1979-08-06 12:31:04.820 ,5,0,2.,4.8,0.,4.8,0.,4.8,0.,4.8
1979-08-06 12:31:09.620 ,4,0,4.,4.8,0.,4.8,0.,4.8,0.,4.8
1979-08-06 12:31:14.420 ,4,0,6.,4.8,0.,4.8,1.,4.8,0.,4.8
1979-08-06 12:31:19.220 ,4,0,3.,4.8,0.,4.8,1.,4.8,0.,4.8
1979-08-06 12:31:24.020 ,4,0,2.,4.8,0.,4.8,0.,4.8,0.,4.8
1979-08-06 12:31:28.820 ,4,0,5.,4.8,0.,4.8,0.,4.8,0.,4.8
1979-08-06 12:31:33.620 ,4,0,3.,4.8,0.,4.8,0.,4.8,0.,4.8
1979-08-06 12:31:38.420 ,4,0,1.,4.8,2.,4.8,1.,4.8,0.,4.8
1979-08-06 12:31:43.220 ,4,0,4.,4.8,0.,4.8,1.,4.8,0.,4.8
1979-08-06 12:31:48.020 ,4,0,5.,4.8,1.,4.8,0.,4.8,0.,4.8
1979-08-06 12:31:52.820 ,4,0,3.,4.8,0.,4.8,0.,4.8,0.,4.8
1979-08-06 12:31:57.620 ,3,0,7.,4.8,0.,4.8,0.,4.8,0.,4.8
1979-08-06 12:32:02.420 ,3,0,4.,4.8,0.,4.8,0.,4.8,0.,4.8
1979-08-06 12:32:07.220 ,3,0,2.,4.8,0.,4.8,0.,4.8,0.,4.8
1979-08-06 12:32:12.020 ,3,0,1.,4.8,1.,4.8,1.,4.8,0.,4.8
1979-08-06 12:32:16.820 ,3,0,3.,4.8,0.,4.8,1.,4.8,0.,4.8
1979-08-06 12:32:21.620 ,3,0,0.,4.8,0.,4.8,1.,4.8,0.,4.8
1979-08-06 12:32:26.420 ,3,0,4.,4.8,0.,4.8,1.,4.8,0.,4.8
1979-08-06 12:32:31.220 ,3,0,1.,4.8,1.,4.8,0.,4.8,0.,4.8
1979-08-06 12:32:36.020 ,3,0,0.,4.8,0.,4.8,1.,4.8,0.,4.8
1979-08-06 12:32:40.820 ,3,0,4.,4.8,0.,4.8,1.,4.8,0.,4.8
1979-08-06 12:32:45.620 ,2,0,2.,4.8,0.,4.8,0.,4.8,0.,4.8
1979-08-06 12:32:50.420 ,2,0,2.,4.8,0.,4.8,1.,4.8,0.,4.8
1979-08-06 12:32:55.220 ,2,0,2.,4.8,1.,4.8,0.,4.8,0.,4.8
1979-08-06 12:33:00.020 ,2,0,1.,4.8,0.,4.8,0.,4.8,0.,4.8
1979-08-06 12:33:04.820 ,2,0,2.,4.8,2.,4.8,1.,4.8,0.,4.8
1979-08-06 12:33:09.620 ,2,0,1.,4.8,2.,4.8,0.,4.8,0.,4.8
1979-08-06 12:33:14.420 ,2,0,2.,4.8,3.,4.8,0.,4.8,0.,4.8